CAPE
0 0 0 0 22 72 105 67 77 102 296 440 250 177 227 347 542 1025 2127 1170 821 768 1682 1614 2135 1551 1164 1430 1816 2074 2248 2321 2335 2244 2173 2014 1913 1503 1320 1389 1515 1127 975 793 572 436 423 231 150
0 0 0 0 0 36 81 0 0 154 372 447 265 220 212 355 1057 2098 2140 1398 861 1078 1457 1473 2072 1748 1224 1212 1527 1919 2014 2005 1988 1964 1845 1621 1549 1380 1232 1353 1395 899 833 753 668 519 360 184 79
0 0 0 0 0 24 41 0 0 210 379 383 328 308 286 882 1803 2234 2181 1433 876 1130 1400 2065 2200 1895 1402 1149 1330 1636 1758 1741 1687 1529 1389 1338 1356 1481 1596 1453 1428 1120 1134 1149 967 673 530 361 211
0 0 0 0 0 0 6 94 0 230 226 380 457 522 1233 1708 1924 2065 1880 1386 1239 1185 1198 2014 2313 2062 1656 1169 1154 1290 1300 1474 1557 1244 1107 1100 1153 1315 1601 1484 1567 1453 1249 970 703 492 341 122 8
0 0 0 0 0 0 0 90 86 190 413 291 365 769 1613 2244 2372 2160 2118 1402 1057 849 1238 1962 2336 2071 1719 1326 1138 1176 1345 1560 1622 1222 1022 977 1090 1131 1172 1223 1223 1169 1133 1044 608 192 56 68 85
0 0 0 14 0 0 0 0 456 522 566 593 300 803 2163 1757 2539 2031 1637 1070 633 733 957 1913 2135 2112 2086 1596 1360 1328 1577 1575 1464 1373 1273 1297 1221 1131 1178 1470 1624 1517 1235 792 475 313 261 248 228
0 0 5 21 5 0 0 0 4 455 554 532 281 402 1378 2398 2390 1440 1048 778 589 660 917 1363 1630 1917 1993 1911 1523 1334 1355 1486 1583 1640 1572 1525 1515 1539 1591 1575 1409 1153 1026 852 755 771 795 682 542
0 0 0 4 24 28 0 0 10 248 1014 372 430 721 1955 2371 1852 1069 744 520 500 562 640 934 1317 1433 1550 1623 1824 1472 1348 1345 1348 1369 1477 1495 1427 1510 1552 1584 1382 1332 1114 1026 1085 1058 807 641 666
0 0 0 17 20 59 0 0 339 458 1051 537 1076 1255 1895 2070 1498 806 500 515 633 587 778 938 1087 1398 1015 1027 1781 1623 1390 1366 1345 1301 1352 1138 550 881 791 680 976 1015 1131 1236 1265 1147 836 742 876
0 0 0 3 3 26 10 0 0 598 694 526 560 739 1669 1869 1704 1294 945 618 514 609 787 911 1522 1201 1216 1084 1607 1236 1013 863 946 953 1382 1011 795 794 690 714 909 939 932 1139 1347 1212 1041 1021 1153
0 0 0 0 0 0 8 8 0 42 57 77 134 273 219 1315 2200 2232 1458 684 385 397 1017 947 1558 1804 874 765 1381 1097 967 1059 1295 1401 1520 1364 1159 1043 623 345 521 372 536 130 594 598 1089 1232 1268
0 0 0 0 0 2 36 88 31 54 40 27 64 81 73 142 1148 2079 2292 1165 391 457 980 1526 1618 1881 1598 1267 1059 838 915 1196 1047 1100 1611 1570 1417 924 549 391 272 271 535 767 980 1061 1298 1256 1117
0 0 0 0 0 0 0 69 131 118 82 20 4 0 0 0 433 248 2202 2855 1830 885 979 1483 1692 1887 1958 1806 1142 1227 1162 1301 1289 1405 1396 1385 1168 911 588 693 1233 1297 1431 2016 1997 1858 1107 255 30
0 0 0 0 0 0 4 47 142 47 96 123 65 60 50 225 175 308 396 462 1005 2592 1658 1581 1352 1660 1676 1426 1471 1445 1617 1461 1347 1447 1307 1287 1329 1101 823 971 1577 1689 3127 2515 1996 1510 374 234 103
0 0 0 0 0 0 0 59 68 129 186 138 162 420 591 631 798 1130 1674 2108 2419 1460 2171 1966 1487 1683 1576 1439 1517 1380 1451 1634 1505 1604 1946 1456 1658 1902 2193 1718 2259 2124 1788 1534 1176 357 235 153 130
0 0 0 0 0 0 16 95 73 62 169 211 219 603 845 809 1044 1221 1297 1450 2157 2841 2765 2397 1390 1436 1756 1603 1670 1708 1921 2595 2445 1887 2277 2114 2266 2553 2581 2380 2022 1245 1504 1230 578 289 218 169 91
0 0 0 0 0 0 20 153 197 90 140 296 646 912 867 915 393 241 742 1163 1705 2076 2181 2254 2223 2250 2344 2567 2731 2882 3060 3017 2701 2788 2709 2583 2551 2491 2512 2268 1383 732 696 727 386 309 188 95 119
0 0 0 4 0 0 58 251 442 436 109 695 1127 946 758 388 378 755 742 931 1260 1348 1208 1099 1095 1721 2463 3144 3040 2717 2538 2269 2109 2333 2395 2421 2182 1985 2035 1738 1144 542 364 299 114 72 83 88 101
0 0 0 0 0 25 218 443 717 817 942 1036 854 631 242 250 562 908 1015 897 980 848 982 900 864 952 1016 1508 1511 2108 2091 1856 1985 1941 1825 1858 1968 1629 1385 1260 803 327 174 159 96 65 69 107 97
0 0 0 0 0 74 286 554 679 669 794 818 712 489 184 865 859 858 784 780 674 772 742 749 767 619 621 567 948 1075 1246 1411 1530 1269 1551 1327 1304 1132 976 895 748 494 231 140 95 104 99 97 14
0 0 0 0 0 80 367 473 332 186 413 261 83 161 211 411 611 647 610 492 422 396 306 373 243 126 105 109 258 372 691 1066 1115 949 1018 940 748 783 778 676 549 411 341 184 173 147 177 187 111
0 0 0 0 0 45 36 210 341 57 101 177 80 126 194 219 114 60 51 31 61 41 22 35 7 0 0 0 0 0 0 12 50 180 312 380 598 680 658 625 521 484 387 570 385 388 351 278 265
0 0 0 0 0 10 29 37 317 136 265 259 168 190 121 27 0 6 0 1 0 8 20 18 11 0 0 0 0 0 0 0 0 0 0 82 204 268 371 453 525 601 526 587 535 571 433 399 380
0 0 0 0 6 42 116 66 394 321 133 269 205 204 150 105 55 18 62 107 50 40 22 0 0 0 0 0 0 0 0 0 0 0 0 0 0 1 124 235 347 737 713 670 643 607 571 600 575
0 0 5 33 65 75 66 102 134 13 20 184 284 210 150 139 140 199 192 56 60 3 0 0 0 0 0 0 0 0 0 0 0 0 0 0 0 0 0 11 14 75 350 541 634 801 742 615 615
0 0 6 0 17 79 53 61 178 0 50 131 233 414 303 311 179 203 193 92 2 0 0 0 0 0 0 0 0 0 0 0 0 0 0 0 0 0 0 0 6 23 43 157 409 565 780 824 744
0 0 0 0 0 0 40 4 0 0 18 84 119 186 220 158 141 50 0 0 0 0 0 0 0 0 0 0 0 0 0 0 0 0 0 0 0 0 12 19 15 13 22 48 161 298 494 465 290
0 0 0 15 0 1 45 20 42 0 0 23 90 74 47 29 8 2 0 0 0 0 0 0 0 0 0 0 0 0 0 0 0 0 0 0 0 0 0 0 0 0 11 31 143 159 171 192 197
0 0 0 0 0 4 0 72 7 24 0 0 4 1 0 0 0 0 0 0 0 0 0 0 0 0 0 0 0 0 0 0 0 0 0 0 0 0 0 0 0 0 0 21 132 222 199 95 101
0 0 0 7 13 28 3 13 0 0 0 0 0 0 0 0 0 0 0 0 0 0 0 0 0 0 0 0 0 0 0 0 0 0 0 0 0 0 0 0 0 0 0 40 60 129 135 141 116
CIN
-0 -0 -0 -0 -68 -4 -0 -9 -62 -52 -32 -69 -111 -72 -27 -38 -28 -4 -45 -67 -109 -108 -35 -64 -43 -76 -90 -59 -41 -39 -22 -6 -2 -1 -2 -2 -2 -18 -25 -3 -0 -14 -24 -39 -58 -68 -71 -117 -161
-0 -0 -0 -0 -0 -0 -0 -0 -0 -62 -61 -87 -114 -85 -41 -39 -55 -38 -34 -104 -138 -118 -50 -43 -26 -60 -97 -83 -62 -38 -35 -27 -17 -15 -22 -28 -24 -24 -24 -5 -2 -36 -37 -42 -55 -71 -87 -143 -227
-0 -0 -0 -0 -0 -0 -1 -0 -0 -75 -79 -80 -84 -90 -53 -23 -48 -34 -56 -118 -171 -153 -85 -31 -26 -42 -115 -111 -73 -50 -41 -38 -29 -34 -35 -40 -30 -10 -0 -0 -0 -7 -5 -3 -13 -50 -66 -93 -136
-0 -0 -0 -0 -0 -0 -67 -21 -0 -57 -93 -77 -73 -7 -28 -70 -39 -79 -114 -125 -145 -168 -136 -62 -29 -22 -57 -117 -88 -72 -56 -39 -21 -43 -48 -38 -36 -14 -0 -0 -0 -0 -0 -2 -18 -67 -113 -190 -322
-0 -0 -0 -0 -0 -0 -0 -47 -51 -26 -35 -75 -97 -15 -12 -60 -81 -102 -103 -147 -151 -162 -122 -58 -16 -17 -55 -113 -115 -100 -71 -38 -25 -47 -54 -51 -27 -13 -3 -0 -0 -0 -0 -0 -25 -120 -239 -242 -228
-0 -0 -0 -0 -0 -0 -0 -0 -20 -10 -20 -70 -83 -34 -19 -93 -54 -93 -115 -145 -185 -178 -143 -66 -41 -21 -25 -72 -92 -88 -55 -40 -32 -29 -19 -15 -15 -11 -6 -0 -0 -0 -0 -10 -41 -69 -88 -114 -130
-0 -0 -0 -0 -0 -0 -0 -0 -94 -12 -16 -28 -65 -25 -43 -44 -79 -111 -137 -169 -199 -189 -156 -104 -88 -48 -55 -69 -75 -91 -90 -53 -32 -10 -1 -0 -0 -0 -0 -0 -0 -0 -1 -9 -15 -13 -10 -22 -49
-0 -0 -0 -0 -0 -0 -0 -0 -112 -15 -11 -77 -81 -12 -0 -46 -106 -139 -155 -175 -175 -184 -178 -116 -102 -80 -72 -92 -65 -96 -102 -87 -60 -28 -8 -3 -2 -0 -0 -0 -3 -0 -1 -3 -3 -5 -23 -37 -38
-0 -0 -0 -0 -0 -0 -0 -0 -21 -61 -11 -33 -18 -21 -33 -70 -102 -136 -160 -141 -179 -208 -199 -172 -124 -101 -108 -95 -65 -83 -105 -93 -67 -47 -35 -42 -53 -18 -20 -20 -22 -13 -0 -0 -0 -5 -24 -38 -46
-0 -0 -0 -0 -0 -0 -0 -0 -0 -2 -5 -9 -12 -34 -54 -66 -64 -73 -59 -102 -112 -144 -169 -169 -139 -136 -125 -135 -73 -88 -107 -110 -78 -54 -22 -19 -9 -10 -14 -36 -41 -32 -24 -8 -4 -9 -25 -43 -0
-0 -0 -0 -0 -0 -0 -0 -1 -0 -10 -12 -64 -55 -63 -62 -35 -39 -31 -35 -45 -58 -115 -174 -160 -162 -119 -102 -96 -89 -75 -66 -55 -33 -24 -15 -6 -0 -0 -13 -12 -14 -30 -42 -22 -18 -9 -2 -0 -0
-0 -0 -0 -0 -0 -0 -0 -0 -1 -17 -42 -46 -44 -33 -42 -42 -1 -0 -16 -96 -76 -59 -176 -193 -161 -129 -145 -118 -96 -69 -42 -44 -39 -33 -21 -5 -0 -5 -29 -3 -3 -20 -0 -0 -0 -0 -0 -0 -0
-0 -0 -0 -0 -0 -0 -0 -0 -0 -0 -9 -27 -58 -0 -0 -0 -3 -48 -5 -2 -35 -99 -159 -199 -182 -150 -162 -134 -95 -58 -50 -36 -27 -33 -28 -21 -18 -15 -22 -3 -0 -0 -0 -0 -0 -0 -5 -15 -14
-0 -0 -0 -0 -0 -0 -8 -0 -1 -7 -4 -10 -21 -81 -52 -101 -63 -80 -91 -45 -36 -4 -52 -177 -160 -121 -123 -146 -103 -61 -37 -51 -46 -30 -44 -50 -34 -33 -29 -10 -0 -0 -0 -0 -0 -0 -6 -1 -5
-0 -0 -0 -0 -0 -0 -0 -0 -1 -2 -0 -9 -16 -65 -134 -127 -151 -107 -98 -107 -77 -48 -45 -127 -162 -128 -100 -165 -103 -56 -48 -31 -45 -28 -29 -47 -38 -13 -5 -0 -0 -0 -0 -15 -11 -73 -31 -10 -0
-0 -0 -0 -0 -0 -0 -48 -3 -54 -22 -19 -10 -15 -21 -121 -212 -179 -156 -228 -190 -123 -43 -37 -60 -113 -127 -96 -79 -67 -55 -32 -14 -19 -31 -8 -21 -5 -0 -0 -0 -0 -16 -3 -6 -41 -50 -40 -24 -9
-0 -0 -0 -0 -0 -0 -29 -4 -64 -70 -31 -3 -13 -79 -125 -220 -354 -334 -238 -210 -127 -80 -37 -49 -41 -18 -35 -41 -20 -13 -7 -1 -9 -3 -2 -1 -1 -0 -0 -0 -16 -55 -43 -31 -65 -55 -67 -46 -25
-0 -0 -0 -0 -0 -0 -18 -58 -74 -59 -23 -19 -64 -78 -148 -277 -233 -238 -235 -180 -132 -114 -131 -77 -92 -91 -62 -33 -8 -4 -22 -27 -36 -17 -3 -11 -13 -14 -6 -3 -36 -87 -70 -73 -109 -104 -43 -28 -10
-0 -0 -0 -0 -0 -25 -39 -81 -92 -67 -41 -70 -131 -190 -391 -207 -223 -182 -123 -184 -120 -113 -122 -117 -81 -86 -88 -39 -71 -2 -6 -19 -2 -6 -27 -20 -5 -20 -29 -8 -45 -106 -110 -88 -143 -44 -22 -4 -5
-0 -0 -0 -0 -0 -6 -45 -66 -99 -102 -70 -73 -120 -177 -242 -148 -111 -142 -148 -155 -117 -91 -71 -71 -84 -77 -57 -54 -88 -68 -29 -14 -8 -30 -20 -30 -20 -27 -24 -19 -30 -53 -50 -116 -46 -23 -13 -15 -23
-0 -0 -0 -0 -0 -12 -29 -50 -111 -196 -124 -191 -264 -237 -205 -169 -144 -121 -119 -104 -113 -112 -92 -54 -53 -44 -32 -162 -108 -79 -67 -8 -3 -7 -1 -9 -23 -18 -18 -21 -27 -32 -41 -25 -73 -69 -43 -10 -13
-0 -0 -0 -0 -0 -0 -9 -1 -92 -229 -195 -166 -204 -213 -174 -174 -179 -163 -134 -120 -113 -83 -94 -78 -10 -0 -0 -0 -0 -0 -0 -38 -192 -122 -84 -88 -31 -25 -20 -16 -8 -4 -6 -0 -2 -3 -18 -15 -12
-0 -0 -0 -0 -0 -0 -6 -0 -70 -207 -139 -163 -173 -176 -159 -176 -10 -156 -90 -178 -14 -155 -111 -100 -88 -0 -0 -0 -0 -0 -0 -0 -0 -0 -0 -155 -68 -58 -28 -12 -2 -0 -1 -0 -0 -0 -0 -2 -0
-0 -0 -0 -0 -0 -0 -1 -3 -3 -65 -175 -137 -171 -157 -149 -140 -124 -157 -143 -88 -68 -53 -37 -0 -0 -0 -0 -0 -0 -0 -0 -0 -0 -0 -0 -0 -0 -67 -39 -12 -8 -0 -0 -0 -0 -0 -0 -0 -0
-0 -0 -0 -0 -0 -0 -43 -5 -98 -70 -177 -120 -88 -109 -121 -110 -99 -59 -40 -51 -40 -9 -0 -0 -0 -0 -0 -0 -0 -0 -0 -0 -0 -0 -0 -0 -0 -0 -0 -0 -12 -41 -0 -0 -0 -0 -0 -0 -0
-0 -0 -0 -0 -0 -0 -26 -0 -9 -0 -146 -81 -31 -9 -28 -9 -16 -9 -2 -8 -5 -0 -0 -0 -0 -0 -0 -0 -0 -0 -0 -0 -0 -0 -0 -0 -0 -0 -0 -0 -0 -0 -33 -1 -0 -0 -0 -0 -0
-0 -0 -0 -0 -0 -0 -1 -4 -0 -0 -62 -69 -40 -1 -0 -0 -0 -1 -14 -0 -0 -0 -0 -0 -0 -0 -0 -0 -0 -0 -0 -0 -0 -0 -0 -0 -0 -0 -0 -0 -0 -0 -0 -0 -0 -0 -0 -0 -0
-0 -0 -0 -0 -0 -0 -0 -1 -0 -0 -0 -41 -4 -3 -10 -25 -31 -40 -0 -0 -0 -0 -0 -0 -0 -0 -0 -0 -0 -0 -0 -0 -0 -0 -0 -0 -0 -0 -0 -0 -0 -0 -0 -0 -0 -0 -0 -0 -0
-0 -0 -0 -0 -0 -0 -0 -0 -55 -44 -0 -0 -8 -8 -0 -0 -0 -0 -0 -0 -0 -0 -0 -0 -0 -0 -0 -0 -0 -0 -0 -0 -0 -0 -0 -0 -0 -0 -0 -0 -0 -0 -0 -0 -0 -0 -0 -4 -0
-0 -0 -0 -0 -0 -0 -0 -0 -0 -0 -0 -0 -0 -0 -0 -0 -0 -0 -0 -0 -0 -0 -0 -0 -0 -0 -0 -0 -0 -0 -0 -0 -0 -0 -0 -0 -0 -0 -0 -0 -0 -0 -0 -0 -0 -0 -0 -0 -0
Wind_Speed
nan nan nan nan nan nan 14 nan nan 7 11 11 4 2 12 18 17 16 14 14 12 11 12 10 11 10 10 12 11 11 11 10 9 9 10 10 10 11 11 11 11 10 10 10 11 10 10 10 9
nan nan nan nan nan nan nan nan nan 10 13 15 12 7 5 21 19 18 16 16 13 13 11 13 11 12 11 12 12 13 13 12 13 11 12 12 12 12 12 12 11 12 13 12 12 12 11 10 nan
nan nan nan nan nan nan nan nan nan 15 16 14 12 9 15 23 22 20 24 19 18 12 12 19 13 12 12 10 12 14 14 15 14 15 14 15 15 14 13 13 13 13 13 13 12 13 13 12 11
nan nan nan nan nan nan nan nan nan 17 13 16 17 20 20 27 22 22 20 20 19 15 13 21 18 13 15 15 15 18 17 17 17 16 16 16 17 16 17 16 15 13 13 13 13 14 14 14 nan
nan nan nan nan nan nan nan nan nan 11 15 22 16 20 28 29 28 22 21 19 19 16 18 20 18 14 15 15 16 19 19 17 17 16 17 16 17 17 18 18 17 16 16 17 17 17 nan nan nan
nan nan nan nan nan nan nan nan 19 18 18 20 17 17 31 28 25 22 21 19 18 15 16 22 19 15 16 15 15 16 18 18 18 17 16 17 17 17 19 20 19 19 20 20 20 19 18 17 17
nan nan nan nan nan nan nan nan nan 19 17 25 15 14 21 26 26 24 20 19 18 19 17 18 19 17 18 19 16 18 20 21 22 21 20 20 21 20 21 22 22 22 22 23 23 21 19 18 18
nan nan nan nan nan nan nan nan nan 30 37 27 23 26 29 30 28 25 24 23 23 22 21 18 19 17 16 22 19 20 23 24 25 25 25 25 24 23 22 22 23 23 22 22 23 22 22 21 20
nan nan nan nan nan nan nan nan 32 28 33 33 28 35 38 37 31 30 31 27 30 29 26 26 22 16 15 23 23 21 22 25 27 26 26 27 24 30 27 27 32 26 22 23 23 23 25 23 20
nan nan nan nan nan nan nan nan nan 23 28 36 29 32 37 35 30 28 33 38 32 32 31 29 25 27 27 26 27 23 26 26 26 27 30 26 29 30 27 32 31 26 25 24 24 24 25 24 23
nan nan nan nan nan nan nan nan nan nan nan nan 42 47 41 36 38 38 40 38 41 43 32 27 32 33 18 24 23 24 26 28 28 27 29 32 33 34 32 30 31 29 33 29 37 34 31 34 29
nan nan nan nan nan nan nan nan nan nan nan nan nan nan nan 39 46 28 26 50 52 42 32 29 25 23 32 33 24 28 29 33 34 37 35 36 36 38 37 32 33 34 32 31 34 37 35 33 37
nan nan nan nan nan nan nan nan 14 18 nan nan nan nan nan nan 62 57 61 50 16 21 24 31 29 31 36 37 28 26 32 37 41 40 37 35 35 34 28 32 34 34 32 39 35 35 38 40 nan
nan nan nan nan nan nan nan nan 22 nan nan 18 nan nan nan 56 61 63 59 40 30 15 21 21 34 36 38 40 28 26 30 37 40 41 44 42 37 35 35 33 32 30 32 32 32 34 39 40 33
nan nan nan nan nan nan nan nan nan 17 18 11 13 51 44 56 68 68 65 55 55 41 36 43 37 36 35 39 33 30 33 35 37 36 38 39 36 35 32 33 35 34 39 40 43 47 50 46 45
nan nan nan nan nan nan nan nan nan nan 14 9 15 43 43 45 58 66 71 68 62 54 42 43 40 39 39 34 36 35 36 35 38 38 26 27 31 31 31 30 31 34 35 39 42 47 45 49 nan
nan nan nan nan nan nan nan 27 33 nan 6 9 30 37 35 44 53 51 60 55 52 65 61 54 45 43 44 39 38 33 33 34 32 25 27 31 32 33 34 34 34 37 41 41 41 42 41 nan 43
nan nan nan nan nan nan nan 35 34 30 23 38 40 42 42 43 56 54 51 54 55 55 48 47 47 43 41 39 36 32 40 27 28 26 32 35 35 36 36 37 39 38 37 38 41 nan nan nan 45
nan nan nan nan nan nan 34 35 35 36 39 40 43 43 42 45 47 56 41 32 39 58 46 40 37 36 30 28 33 33 31 30 31 34 37 39 43 40 37 39 43 44 43 41 nan nan nan 47 nan
nan nan nan nan nan nan 31 38 41 42 43 40 40 43 50 50 49 41 36 38 41 33 32 35 46 32 36 34 29 31 30 35 39 41 39 42 42 42 39 40 44 46 48 51 nan 50 nan nan nan
nan nan nan nan nan nan 33 36 37 40 42 44 nan 36 42 48 48 42 37 34 36 39 37 39 40 41 44 42 41 37 38 41 45 43 42 44 44 45 46 46 46 51 52 55 53 55 56 58 64
nan nan nan nan nan nan nan 18 35 nan 39 37 nan 36 41 48 51 nan nan nan nan nan nan nan nan nan nan nan nan nan nan nan nan 47 49 45 47 47 48 50 51 57 59 58 63 63 63 66 63
nan nan nan nan nan nan nan nan 45 32 32 34 34 36 39 nan nan nan nan nan nan nan nan nan nan nan nan nan nan nan nan nan nan nan nan nan 52 52 53 52 54 62 63 62 65 66 69 69 69
nan nan nan nan nan nan 22 nan 40 37 34 37 36 39 38 39 nan nan nan 42 nan nan nan nan nan nan nan nan nan nan nan nan nan nan nan nan nan nan 56 61 66 69 67 68 69 64 65 66 66
nan nan nan nan nan nan nan 23 44 nan nan 41 39 42 42 44 47 48 47 nan nan nan nan nan nan nan nan nan nan nan nan nan nan nan nan nan nan nan nan nan nan nan 71 67 67 67 65 65 67
nan nan nan nan nan nan nan nan 38 nan nan 39 37 33 34 37 35 36 36 nan nan nan nan nan nan nan nan nan nan nan nan nan nan nan nan nan nan nan nan nan nan nan nan 65 64 66 66 65 68
nan nan nan nan nan nan nan nan nan nan nan nan 28 27 23 26 31 nan nan nan nan nan nan nan nan nan nan nan nan nan nan nan nan nan nan nan nan nan nan nan nan nan nan nan 60 61 59 59 62
nan nan nan nan nan nan nan nan nan nan nan nan nan nan nan nan nan nan nan nan nan nan nan nan nan nan nan nan nan nan nan nan nan nan nan nan nan nan nan nan nan nan nan nan 53 58 58 57 56
nan nan nan nan nan nan nan nan nan nan nan nan nan nan nan nan nan nan nan nan nan nan nan nan nan nan nan nan nan nan nan nan nan nan nan nan nan nan nan nan nan nan nan nan 45 47 51 nan 46
nan nan nan nan nan nan nan nan nan nan nan nan nan nan nan nan nan nan nan nan nan nan nan nan nan nan nan nan nan nan nan nan nan nan nan nan nan nan nan nan nan nan nan nan nan 26 24 30 36
Wind_Direction
nan nan nan nan nan nan 280 nan nan 249 257 276 282 233 221 203 193 200 208 249 235 264 266 271 250 246 232 234 242 253 258 264 270 278 287 295 300 306 308 310 310 305 298 297 295 292 293 289 286
nan nan nan nan nan nan nan nan nan 248 264 288 307 304 199 222 207 220 243 240 258 257 262 262 239 243 232 229 239 248 263 266 276 284 295 298 297 301 302 303 303 299 297 298 297 294 292 292 nan
nan nan nan nan nan nan nan nan nan 272 284 271 287 263 216 210 216 218 236 256 256 259 267 262 254 252 264 250 251 254 259 269 274 280 285 292 292 291 292 296 297 295 295 298 296 294 291 289 291
nan nan nan nan nan nan nan nan nan 290 274 260 272 274 231 205 204 224 254 270 266 266 274 274 271 262 263 266 264 263 261 265 269 279 285 290 294 295 294 296 295 296 292 288 284 284 283 285 nan
nan nan nan nan nan nan nan nan nan 261 258 270 268 249 226 221 220 245 263 276 275 279 281 289 273 275 277 286 281 282 280 274 276 281 287 290 291 293 293 293 293 293 289 284 282 280 nan nan nan
nan nan nan nan nan nan nan nan 228 238 262 270 258 249 225 224 238 256 265 272 269 277 282 279 272 269 271 273 281 284 281 282 282 282 285 287 288 292 295 298 298 296 293 289 285 285 287 287 284
nan nan nan nan nan nan nan nan nan 235 244 242 244 245 239 236 246 261 266 265 266 264 266 276 284 273 271 276 275 276 281 284 283 280 279 281 283 283 284 286 290 290 289 290 290 286 278 275 275
nan nan nan nan nan nan nan nan nan 232 243 238 237 251 255 253 255 261 260 252 253 254 257 261 269 277 278 280 279 281 279 281 280 280 283 281 279 281 285 281 293 286 288 289 289 285 280 275 274
nan nan nan nan nan nan nan nan 242 243 245 246 252 248 255 261 259 255 249 248 243 234 238 243 250 266 269 275 277 283 285 282 280 284 284 287 287 290 293 289 279 286 286 285 286 285 280 276 286
nan nan nan nan nan nan nan nan nan 252 256 257 262 251 255 245 248 247 252 244 244 252 253 253 251 252 257 261 272 275 275 279 282 283 282 281 275 273 263 268 284 288 289 290 290 284 280 283 279
nan nan nan nan nan nan nan nan nan nan nan nan 237 233 235 236 222 230 246 247 256 248 235 243 253 246 249 254 261 264 270 274 279 279 276 277 273 276 277 274 285 289 301 292 300 296 292 279 278
nan nan nan nan nan nan nan nan nan nan nan nan nan nan nan 228 236 196 259 238 238 259 247 244 258 247 242 240 248 259 266 271 273 278 281 276 276 275 264 271 275 281 284 282 285 278 271 278 273
nan nan nan nan nan nan nan nan 262 236 nan nan nan nan nan nan 248 221 233 215 255 257 259 251 248 257 265 262 256 264 269 273 271 276 278 271 270 269 265 268 272 272 273 271 275 277 274 269 nan
nan nan nan nan nan nan nan nan 261 nan nan 246 nan nan nan 240 241 246 252 235 196 229 250 271 263 257 260 267 258 263 259 271 271 270 270 273 269 269 266 268 269 278 276 280 279 277 273 276 265
nan nan nan nan nan nan nan nan nan 252 232 246 273 267 254 260 237 241 247 230 231 220 239 255 257 265 265 269 266 258 263 259 267 265 270 268 272 273 274 279 273 274 273 277 275 278 280 279 277
nan nan nan nan nan nan nan nan nan nan 249 300 274 255 259 256 252 247 240 243 229 240 237 256 261 274 279 272 270 259 257 263 271 276 279 291 295 288 288 288 283 281 284 287 284 281 283 278 nan
nan nan nan nan nan nan nan 234 232 nan 266 219 235 255 262 260 255 254 254 253 255 246 237 247 248 257 260 267 265 264 267 266 270 281 291 282 280 283 281 280 281 283 286 288 287 287 286 nan 286
nan nan nan nan nan nan nan 254 240 230 258 262 262 257 257 256 252 252 250 254 260 256 236 243 240 239 246 266 275 274 269 274 283 285 285 284 282 283 289 288 286 288 287 288 288 nan nan nan 286
nan nan nan nan nan nan 269 259 247 240 253 256 262 266 264 257 255 255 249 247 247 246 237 250 254 272 274 281 284 277 290 296 291 281 275 277 280 284 287 288 292 292 291 290 nan nan nan 298 nan
nan nan nan nan nan nan 280 263 252 245 240 258 273 276 264 266 260 244 244 246 249 259 262 262 252 257 261 262 275 284 278 280 276 275 277 277 282 285 292 293 296 298 298 297 nan 293 nan nan nan
nan nan nan nan nan nan 293 272 267 260 260 267 nan 271 263 256 259 254 255 256 262 264 264 269 273 275 269 267 274 274 274 275 272 273 278 278 284 288 292 296 303 305 303 299 295 292 296 295 297
nan nan nan nan nan nan nan 267 278 nan 270 271 nan 266 266 261 249 nan nan nan nan nan nan nan nan nan nan nan nan nan nan nan nan 276 275 281 282 286 288 294 297 302 300 296 296 294 292 291 293
nan nan nan nan nan nan nan nan 275 281 271 271 273 275 272 nan nan nan nan nan nan nan nan nan nan nan nan nan nan nan nan nan nan nan nan nan 281 282 283 284 290 298 295 293 294 294 293 292 290
nan nan nan nan nan nan 266 nan 286 284 281 275 268 266 263 260 nan nan nan 262 nan nan nan nan nan nan nan nan nan nan nan nan nan nan nan nan nan nan 283 280 283 288 290 292 292 291 290 287 286
nan nan nan nan nan nan nan 257 250 nan nan 275 269 264 259 256 254 256 256 nan nan nan nan nan nan nan nan nan nan nan nan nan nan nan nan nan nan nan nan nan nan nan 282 285 286 286 286 287 286
nan nan nan nan nan nan nan nan 276 nan nan 277 271 266 256 257 256 251 252 nan nan nan nan nan nan nan nan nan nan nan nan nan nan nan nan nan nan nan nan nan nan nan nan 279 281 283 283 280 279
nan nan nan nan nan nan nan nan nan nan nan nan 278 272 263 254 249 nan nan nan nan nan nan nan nan nan nan nan nan nan nan nan nan nan nan nan nan nan nan nan nan nan nan nan 278 279 279 279 278
nan nan nan nan nan nan nan nan nan nan nan nan nan nan nan nan nan nan nan nan nan nan nan nan nan nan nan nan nan nan nan nan nan nan nan nan nan nan nan nan nan nan nan nan 281 282 283 284 283
nan nan nan nan nan nan nan nan nan nan nan nan nan nan nan nan nan nan nan nan nan nan nan nan nan nan nan nan nan nan nan nan nan nan nan nan nan nan nan nan nan nan nan nan 285 286 286 nan 287
nan nan nan nan nan nan nan nan nan nan nan nan nan nan nan nan nan nan nan nan nan nan nan nan nan nan nan nan nan nan nan nan nan nan nan nan nan nan nan nan nan nan nan nan nan 292 284 282 282